Birchwood, AK

4:10 PM AKDT on October 19, 2017 (GMT -0800)
Birchwood

Weather History for PABV - January, 2013

Change the Weather History Date:

Saturday, January 19, 2013

  Actual Average Record
Temperature  
Mean Temperature 18 °F -  
Max Temperature 23 °F 20 °F 41 °F (1987)
Min Temperature 12 °F 8 °F -26 °F (2017)
Degree Days  
Heating Degree Days 48    
Moisture  
Dew Point 16 °F    
Average Humidity 94    
Maximum Humidity 100    
Minimum Humidity 86    
Precipitation  
Precipitation 0.00 in - - ()
Sea Level Pressure  
Sea Level Pressure 30.14 in    
Wind  
Wind Speed 2 mph (South)    
Max Wind Speed 8 mph    
Max Gust Speed -    
Visibility 10 miles    
Events      
Averages and records for this station are not official NWS values.
T = Trace of Precipitation, MM = Missing Value Source: NWS Daily Summary

Daily Weather History Graph

Daily Weather History Graph

Search for Another Location

Airport or City:

Trip Planner

Search our weather history database for the weather conditions in past years. The results will help you decide how hot, cold, wet, or windy it might be!

Date:

Astronomy

Jan. 19, 2013 Rise Set
Actual Time 9:48 AM AKST 4:29 PM AKST
Civil Twilight 8:53 AM AKST 5:24 PM AKST
Nautical Twilight 7:57 AM AKST 6:20 PM AKST
Astronomical Twilight 7:05 AM AKST 7:12 PM AKST
Moon 11:22 AM AKST (1/19) 3:07 AM AKST (1/19)
Length of Visible Light 8h 30m
Length of Day
6h 41m
First Quarter, 58% of the Moon is Illuminated
Jan 19
First Quarter
Jan 26
Full
Feb 3
Last Quarter
Feb 9
New
Feb 17
First Quarter

Hourly Weather History & Observations

Time (AKST) Temp. Windchill Dew Point Humidity Pressure Visibility Wind Dir Wind Speed Gust Speed Precip Events Conditions
12:16 AM 12.2 °F 6.1 °F 10.4 °F 92% 30.23 in 10.0 mi South 3.5 mph - N/A   Overcast
12:36 AM 12.2 °F 6.1 °F 12.2 °F 100% 30.23 in 10.0 mi South 3.5 mph - N/A   Overcast
12:56 AM 12.2 °F - 12.2 °F 100% 30.23 in 10.0 mi Calm Calm - N/A   Overcast
1:16 AM 12.2 °F 6.1 °F 12.2 °F 100% 30.23 in 10.0 mi South 3.5 mph - N/A   Overcast
1:36 AM 12.2 °F 4.3 °F 12.2 °F 100% 30.23 in 10.0 mi South 4.6 mph - N/A   Overcast
1:56 AM 12.2 °F 6.1 °F 12.2 °F 100% 30.23 in 10.0 mi South 3.5 mph - N/A   Overcast
2:16 AM 12.2 °F 6.1 °F 12.2 °F 100% 30.24 in 10.0 mi South 3.5 mph - N/A   Overcast
2:36 AM 12.2 °F 4.3 °F 12.2 °F 100% 30.24 in 10.0 mi South 4.6 mph - N/A   Overcast
2:56 AM 12.2 °F 4.3 °F 12.2 °F 100% 30.24 in 10.0 mi South 4.6 mph - N/A   Overcast
3:16 AM 12.2 °F 6.1 °F 12.2 °F 100% 30.24 in 10.0 mi South 3.5 mph - N/A   Overcast
3:36 AM 12.2 °F 4.3 °F 12.2 °F 100% 30.23 in 10.0 mi South 4.6 mph - N/A   Overcast
3:56 AM 14.0 °F - 12.2 °F 93% 30.23 in 10.0 mi Calm Calm - N/A   Mostly Cloudy
4:16 AM 12.2 °F 6.1 °F 12.2 °F 100% 30.23 in 10.0 mi South 3.5 mph - N/A   Overcast
4:36 AM 14.0 °F 8.2 °F 12.2 °F 93% 30.23 in 10.0 mi South 3.5 mph - N/A   Overcast
4:56 AM 14.0 °F - 12.2 °F 93% 30.22 in 10.0 mi Calm Calm - N/A   Mostly Cloudy
5:16 AM 12.2 °F - 12.2 °F 100% 30.22 in 10.0 mi Calm Calm - N/A   Mostly Cloudy
5:36 AM 12.2 °F - 12.2 °F 100% 30.22 in 10.0 mi Calm Calm - N/A   Mostly Cloudy
5:56 AM 12.2 °F - 12.2 °F 100% 30.22 in 10.0 mi Calm Calm - N/A   Mostly Cloudy
6:16 AM 14.0 °F - 12.2 °F 93% 30.21 in 10.0 mi Calm Calm - N/A   Overcast
6:36 AM 14.0 °F - 12.2 °F 93% 30.21 in 10.0 mi Calm Calm - N/A   Overcast
6:56 AM 14.0 °F - 12.2 °F 93% 30.21 in 10.0 mi Calm Calm - N/A   Overcast
7:16 AM 14.0 °F - 12.2 °F 93% 30.21 in 10.0 mi Calm Calm - N/A   Overcast
7:36 AM 15.8 °F - 14.0 °F 93% 30.20 in 10.0 mi Calm Calm - N/A   Overcast
7:56 AM 15.8 °F - 14.0 °F 93% 30.20 in 10.0 mi Calm Calm - N/A   Overcast
8:16 AM 15.8 °F - 14.0 °F 93% 30.21 in 10.0 mi Calm Calm - N/A   Overcast
8:36 AM 15.8 °F - 14.0 °F 93% 30.20 in 10.0 mi Calm Calm - N/A   Overcast
8:56 AM 15.8 °F - 15.8 °F 100% 30.21 in 10.0 mi Calm Calm - N/A   Overcast
9:16 AM 15.8 °F - 15.8 °F 100% 30.20 in 10.0 mi Calm Calm - N/A   Overcast
9:36 AM 15.8 °F - 15.8 °F 100% 30.20 in 10.0 mi Calm Calm - N/A   Overcast
9:56 AM 15.8 °F - 15.8 °F 100% 30.21 in 10.0 mi Calm Calm - N/A   Overcast
10:16 AM 17.6 °F - 15.8 °F 93% 30.20 in 10.0 mi Calm Calm - N/A   Overcast
10:36 AM 17.6 °F - 15.8 °F 93% 30.20 in 10.0 mi Calm Calm - N/A   Overcast
10:56 AM 17.6 °F - 17.6 °F 100% 30.20 in 10.0 mi Calm Calm - N/A   Overcast
11:16 AM 17.6 °F - 17.6 °F 100% 30.20 in 10.0 mi Calm Calm - N/A   Overcast
11:36 AM 17.6 °F - 17.6 °F 100% 30.20 in 8.0 mi Calm Calm - N/A   Overcast
11:56 AM 19.4 °F - 17.6 °F 93% 30.19 in 10.0 mi Calm Calm - N/A   Overcast
12:16 PM 19.4 °F - 17.6 °F 93% 30.19 in 10.0 mi Calm Calm - N/A   Overcast
12:36 PM 19.4 °F - 17.6 °F 93% 30.18 in 10.0 mi Calm Calm - N/A   Overcast
12:56 PM 19.4 °F 12.8 °F 17.6 °F 93% 30.18 in 10.0 mi South 4.6 mph - N/A   Overcast
1:16 PM 19.4 °F 12.8 °F 17.6 °F 93% 30.17 in 10.0 mi SSW 4.6 mph - N/A   Overcast
1:36 PM 19.4 °F 9.5 °F 17.6 °F 93% 30.17 in 10.0 mi South 8.1 mph - N/A   Overcast
1:56 PM 19.4 °F - 17.6 °F 93% 30.16 in 10.0 mi Calm Calm - N/A   Overcast
2:16 PM 19.4 °F - 17.6 °F 93% 30.15 in 10.0 mi Calm Calm - N/A   Overcast
2:36 PM 21.2 °F 16.4 °F 17.6 °F 86% 30.14 in 10.0 mi South 3.5 mph - N/A   Overcast
2:56 PM 21.2 °F 16.4 °F 17.6 °F 86% 30.13 in 10.0 mi SSW 3.5 mph - N/A   Overcast
3:16 PM 21.2 °F 16.4 °F 17.6 °F 86% 30.12 in 10.0 mi South 3.5 mph - N/A   Overcast
3:36 PM 21.2 °F - 17.6 °F 86% 30.12 in 10.0 mi Calm Calm - N/A   Overcast
3:56 PM 21.2 °F - 17.6 °F 86% 30.10 in 10.0 mi Calm Calm - N/A   Overcast
4:16 PM 21.2 °F 16.4 °F 17.6 °F 86% 30.09 in 10.0 mi South 3.5 mph - N/A   Overcast
4:36 PM 21.2 °F 16.4 °F 17.6 °F 86% 30.09 in 10.0 mi South 3.5 mph - N/A   Overcast
4:56 PM 21.2 °F 16.4 °F 17.6 °F 86% 30.08 in 10.0 mi SSE 3.5 mph - N/A   Overcast
5:16 PM 21.2 °F 16.4 °F 17.6 °F 86% 30.07 in 10.0 mi South 3.5 mph - N/A   Mostly Cloudy
5:36 PM 21.2 °F - 17.6 °F 86% 30.06 in 10.0 mi Calm Calm - N/A   Overcast
5:56 PM 21.2 °F - 19.4 °F 93% 30.05 in 10.0 mi Calm Calm - N/A   Overcast
6:16 PM 21.2 °F - 19.4 °F 93% 30.05 in 10.0 mi Calm Calm - N/A   Overcast
6:36 PM 21.2 °F - 19.4 °F 93% 30.04 in 10.0 mi Calm Calm - N/A   Overcast
6:56 PM 21.2 °F - 19.4 °F 93% 30.02 in 10.0 mi Calm Calm - N/A   Overcast
7:16 PM 21.2 °F - 19.4 °F 93% 30.01 in 10.0 mi Calm Calm - N/A   Overcast
7:36 PM 21.2 °F - 19.4 °F 93% 30.00 in 10.0 mi Calm Calm - N/A   Overcast
7:56 PM 21.2 °F - 19.4 °F 93% 30.00 in 10.0 mi Calm Calm - N/A   Overcast
8:16 PM 23.0 °F 17.0 °F 19.4 °F 86% 30.00 in 10.0 mi South 4.6 mph - N/A   Overcast
8:36 PM 21.2 °F 16.4 °F 19.4 °F 93% 30.00 in 10.0 mi South 3.5 mph - N/A   Overcast
8:56 PM 21.2 °F 13.6 °F 19.4 °F 93% 30.00 in 10.0 mi SSW 5.8 mph - N/A   Overcast
9:16 PM 23.0 °F 18.4 °F 19.4 °F 86% 29.98 in 10.0 mi SSE 3.5 mph - N/A   Overcast
9:36 PM 23.0 °F - 19.4 °F 86% 29.98 in 10.0 mi Calm Calm - N/A   Mostly Cloudy
9:56 PM 23.0 °F 18.4 °F 19.4 °F 86% 29.98 in 10.0 mi SSW 3.5 mph - N/A   Mostly Cloudy
10:16 PM 21.2 °F 13.6 °F 19.4 °F 93% 29.98 in 10.0 mi SSW 5.8 mph - N/A   Overcast
10:36 PM 21.2 °F 13.6 °F 19.4 °F 93% 29.96 in 10.0 mi SSW 5.8 mph - N/A   Overcast
10:56 PM 21.2 °F 13.6 °F 19.4 °F 93% 29.97 in 10.0 mi SSW 5.8 mph - N/A   Mostly Cloudy
11:16 PM 21.2 °F 13.6 °F 19.4 °F 93% 29.98 in 10.0 mi South 5.8 mph - N/A   Partly Cloudy
11:36 PM 21.2 °F 14.9 °F 19.4 °F 93% 29.98 in 10.0 mi SW 4.6 mph - N/A   Clear
11:56 PM 21.2 °F 12.6 °F 19.4 °F 93% 29.98 in 10.0 mi SSW 6.9 mph - N/A   Clear